Weather History for EINN - September, 2012

Change the Weather History Date:

Tuesday, September 25, 2012

  Actual Average Record
Temperature  
Mean Temperature 50 °F -  
Max Temperature 54 °F 59 °F 68 °F (1997)
Min Temperature 47 °F 47 °F 41 °F (2008)
Degree Days  
Heating Degree Days 14    
Moisture  
Dew Point 48 °F    
Average Humidity 91    
Maximum Humidity 100    
Minimum Humidity 77    
Precipitation  
Precipitation 0.08 in 0.12 in - ()
Sea Level Pressure  
Sea Level Pressure 29.24 in    
Wind  
Wind Speed 11 mph ()    
Max Wind Speed 20 mph    
Max Gust Speed 29 mph    
Visibility 6.2 miles    
Events Rain    
Averages and records for this station are not official NWS values.
T = Trace of Precipitation, MM = Missing Value Source: Averaged Metar Reports

Daily Weather History Graph

Daily Weather History Graph

Search for Another Location

Airport or City:

Trip Planner

Search our weather history database for the weather conditions in past years. The results will help you decide how hot, cold, wet, or windy it might be!

Date:

Astronomy

Sep. 25, 2012 Rise Set
Actual Time 7:27 AM IST 7:26 PM IST
Civil Twilight 6:53 AM IST 8:00 PM IST
Nautical Twilight 6:12 AM IST 8:40 PM IST
Astronomical Twilight 5:30 AM IST 9:22 PM IST
Moon 5:11 PM IST (9/25) 2:00 AM IST (9/25)
Length of Visible Light 13h 07m
Length of Day
11h 58m
Waxing Gibbous, 78% of the Moon is Illuminated
Sep 25
Waxing Gibbous
Sep 30
Full
Oct 8
Last Quarter
Oct 15
New
Oct 22
First Quarter

Hourly Weather History & Observations

Time (IST) Temp. Dew Point Humidity Pressure Visibility Wind Dir Wind Speed Gust Speed Precip Events Conditions
12:00 AM 48.2 °F 48.2 °F 100% 29.27 in 6.2 mi NW 9.2 mph - N/A Rain Light Rain
12:30 AM 48.2 °F 48.2 °F 100% 29.24 in 6.2 mi NW 12.7 mph - N/A Rain Light Rain
1:00 AM 48 °F 47 °F 97% 29.25 in 7 mi NW 15.7 mph - - Rain Light Rain
1:00 AM 48.2 °F 48.2 °F 100% 29.24 in 6.2 mi NW 15.0 mph - N/A Rain Light Rain
1:30 AM 48.2 °F 48.2 °F 100% 29.24 in 6.2 mi NW 9.2 mph - N/A Rain Light Rain
2:00 AM 48.2 °F 46.4 °F 93% 29.24 in 6.2 mi NW 9.2 mph - N/A Rain Light Rain
2:30 AM 48.2 °F 46.4 °F 93% 29.24 in 6.2 mi NW 9.2 mph - N/A Rain Light Rain
3:00 AM 48.2 °F 48.2 °F 100% 29.21 in 6.2 mi NW 10.4 mph - N/A Rain Light Rain
3:30 AM 48.2 °F 46.4 °F 93% 29.21 in 6.2 mi NNW 10.4 mph - N/A Rain Light Rain
4:00 AM 48.2 °F 46.4 °F 93% 29.21 in 6.2 mi NW 9.2 mph - N/A Rain Light Rain
4:30 AM 48.2 °F 46.4 °F 93% 29.21 in 6.2 mi NW 11.5 mph - N/A Rain Light Rain
5:00 AM 48.2 °F 48.2 °F 100% 29.21 in 6.2 mi NW 10.4 mph - N/A Rain Light Rain
5:30 AM 48.2 °F 48.2 °F 100% 29.21 in 6.2 mi NW 11.5 mph - N/A Rain Light Rain
6:00 AM 48.2 °F 48.2 °F 100% 29.21 in 6.2 mi NNW 11.5 mph - N/A Rain Light Rain
6:30 AM 48.2 °F 48.2 °F 100% 29.18 in 6.2 mi NW 11.5 mph - N/A Rain Light Rain
7:00 AM 49 °F 47 °F 92% 29.21 in 12 mi NNW 11.2 mph - - Rain Light Rain
7:00 AM 48.2 °F 48.2 °F 100% 29.21 in 6.2 mi NNW 11.5 mph - N/A Rain Light Rain
7:30 AM 48.2 °F 48.2 °F 100% 29.21 in 6.2 mi NNW 12.7 mph - N/A Rain Light Rain
8:00 AM 48.2 °F 48.2 °F 100% 29.21 in 6.2 mi NNW 13.8 mph - N/A Rain Light Rain
8:30 AM 50.0 °F 48.2 °F 94% 29.21 in 6.2 mi NNW 12.7 mph - N/A Rain Light Rain
9:00 AM 50.0 °F 48.2 °F 94% 29.21 in 6.2 mi NNW 12.7 mph - N/A Rain Light Rain
9:30 AM 50.0 °F 48.2 °F 94% 29.24 in 6.2 mi NNW 12.7 mph - N/A   Mostly Cloudy
10:00 AM 50.0 °F 48.2 °F 94% 29.24 in 6.2 mi North 9.2 mph - N/A   Mostly Cloudy
10:30 AM 50.0 °F 48.2 °F 94% 29.24 in 6.2 mi NNW 10.4 mph - N/A Rain Light Rain
11:00 AM 50.0 °F 48.2 °F 94% 29.24 in 6.2 mi NNW 9.2 mph - N/A Rain Light Rain
11:30 AM 50.0 °F 48.2 °F 94% 29.24 in 6.2 mi NNW 10.4 mph - N/A Rain Light Rain
12:00 PM 51.8 °F 48.2 °F 88% 29.24 in 6.2 mi NNW 10.4 mph - N/A   Mostly Cloudy
12:30 PM 51.8 °F 48.2 °F 88% 29.24 in 6.2 mi NNW 10.4 mph - N/A   Mostly Cloudy
1:00 PM 52 °F 47 °F 79% 29.26 in 12 mi NNW 11.2 mph - - Rain Light Rain
1:00 PM 51.8 °F 48.2 °F 88% 29.24 in 6.2 mi NNW 11.5 mph - N/A Rain Light Rain
1:30 PM 53.6 °F 48.2 °F 82% 29.24 in 6.2 mi NNW 10.4 mph - N/A   Mostly Cloudy
2:00 PM 51.8 °F 48.2 °F 88% 29.24 in 5.0 mi NW 10.4 mph - N/A Rain Light Rain
2:30 PM 53.6 °F 50.0 °F 88% 29.24 in 6.2 mi NW 10.4 mph - N/A   Mostly Cloudy
3:00 PM 55.4 °F 48.2 °F 77% 29.24 in 6.2 mi NNW 13.8 mph - N/A   Mostly Cloudy
3:30 PM 51.8 °F 48.2 °F 88% 29.24 in 2.5 mi NNW 15.0 mph - N/A Rain Light Rain Showers
4:00 PM 53.6 °F 48.2 °F 82% 29.24 in 6.2 mi NNW 16.1 mph - N/A Rain Light Rain Showers
4:30 PM 53.6 °F 46.4 °F 77% 29.24 in 6.2 mi NNW 13.8 mph - N/A   Mostly Cloudy
5:00 PM 51.8 °F 48.2 °F 88% 29.24 in 5.0 mi NNW 16.1 mph 28.8 mph N/A Rain Light Rain Showers
5:30 PM 51.8 °F 48.2 °F 88% 29.24 in 5.0 mi NNW 17.3 mph - N/A Rain Light Rain Showers
6:00 PM 51.8 °F 48.2 °F 88% 29.24 in 3.1 mi NNW 17.3 mph - N/A Rain Light Rain
6:30 PM 51.8 °F 48.2 °F 88% 29.24 in 3.7 mi NNW 15.0 mph - N/A Rain Light Rain
7:00 PM 52 °F 49 °F 84% 29.25 in 6 mi NNW 15.7 mph - - Rain Light Rain
7:00 PM 51.8 °F 48.2 °F 88% 29.24 in 6.2 mi NNW 16.1 mph - N/A Rain Light Rain
8:00 PM 53.6 °F 48.2 °F 82% 29.24 in 6.2 mi NNW 13.8 mph - N/A   Mostly Cloudy
8:30 PM 53.6 °F 48.2 °F 82% 29.27 in 6.2 mi NNW 17.3 mph - N/A   Mostly Cloudy
9:00 PM 53.6 °F 48.2 °F 82% 29.27 in 6.2 mi NNW 18.4 mph - N/A   Mostly Cloudy
9:30 PM 53.6 °F 48.2 °F 82% 29.27 in 6.2 mi NNW 16.1 mph - N/A   Mostly Cloudy
10:00 PM 53.6 °F 48.2 °F 82% 29.27 in 6.2 mi NNW 15.0 mph - N/A   Mostly Cloudy
10:30 PM 53.6 °F 48.2 °F 82% 29.27 in 6.2 mi NNW 17.3 mph - N/A   Mostly Cloudy
11:00 PM 53.6 °F 48.2 °F 82% 29.27 in 6.2 mi NNW 19.6 mph - N/A   Mostly Cloudy
11:30 PM 53.6 °F 48.2 °F 82% 29.30 in 6.2 mi NNW 16.1 mph - N/A   Mostly Cloudy